Weather History for Lamar, CO

Change the Weather History Date:

Sunday, July 21, 2013

  Actual Average Record
Temperature  
Mean Temperature 82 °F 78 °F  
Max Temperature 96 °F 94 °F 107 °F (1934)
Min Temperature 67 °F 62 °F 50 °F (1992)
Degree Days  
Heating Degree Days 0 0  
Month to date heating degree days 0 0  
Since 1 June heating degree days 16 20  
Since 1 July heating degree days 0 0  
Cooling Degree Days 17 13  
Month to date cooling degree days 300 256  
Year to date cooling degree days 823 536  
Since 1 June cooling degree days 682 476  
Growing Degree Days 31 (Base 50)    
Moisture  
Dew Point 60 °F    
Average Humidity 59    
Maximum Humidity 93    
Minimum Humidity 24    
Precipitation  
Precipitation 0.00 in 0.10 in 1.25 in (1966)
Month to date precipitation 1.06 1.86  
Year to date precipitation 3.87 9.06  
Sea Level Pressure  
Sea Level Pressure 29.77 in    
Wind  
Wind Speed 10 mph (East)    
Max Wind Speed 18 mph    
Max Gust Speed 25 mph    
Visibility 9 miles    
Events      
T = Trace of Precipitation, MM = Missing Value Source: NWS Daily Summary

Daily Weather History Graph

Daily Weather History Graph

Search for Another Location

Airport:

Trip Planner

Search our weather history database for the weather conditions in past years. The results will help you decide how hot, cold, wet, or windy it might be!

Date:

Astronomy

Jul. 21, 2013 Rise Set
Actual Time 5:44 AM MDT 8:09 PM MDT
Civil Twilight 5:14 AM MDT 8:39 PM MDT
Nautical Twilight 4:37 AM MDT 9:16 PM MDT
Astronomical Twilight 3:56 AM MDT 9:57 PM MDT
Moon 7:09 PM MDT (7/21) 4:32 AM MDT (7/21)
Length of Visible Light 15h 24m
Length of Day
14h 24m
Waxing Gibbous, 98% of the Moon is Illuminated
Jul 21
Waxing Gibbous
Jul 22
Full
Jul 29
Last Quarter
Aug 6
New
Aug 14
First Quarter

Hourly Weather History & Observations

Time (MDT) Temp. Heat Index Dew Point Humidity Pressure Visibility Wind Dir Wind Speed Gust Speed Precip Events Conditions
12:53 AM 75.9 °F - 63.0 °F 64% 29.77 in 10.0 mi East 12.7 mph - N/A   Clear
1:53 AM 73.9 °F - 63.0 °F 68% 29.76 in 10.0 mi ESE 6.9 mph - N/A   Clear
2:53 AM 73.0 °F - 63.0 °F 71% 29.74 in 10.0 mi SSE 4.6 mph - N/A   Clear
3:53 AM 70.0 °F - 62.1 °F 76% 29.75 in 10.0 mi North 4.6 mph - N/A   Clear
4:53 AM 68.0 °F - 63.0 °F 84% 29.77 in 8.0 mi NE 8.1 mph - N/A   Clear
5:43 AM 66.2 °F - 62.6 °F 88% 29.95 in 7.0 mi North 6.9 mph - N/A   Partly Cloudy
5:53 AM 66.9 °F - 64.0 °F 90% 29.79 in 5.0 mi NNE 6.9 mph - N/A   Scattered Clouds
6:02 AM 66.2 °F - 64.4 °F 94% 29.96 in 5.0 mi North 6.9 mph - N/A   Mostly Cloudy
6:53 AM 69.1 °F - 64.0 °F 84% 29.80 in 4.0 mi ENE 11.5 mph - N/A   Haze
7:38 AM 69.8 °F - 64.4 °F 83% 29.96 in 5.0 mi ENE 8.1 mph - N/A   Haze
7:53 AM 71.1 °F - 64.0 °F 78% 29.80 in 5.0 mi East 8.1 mph - N/A   Haze
8:02 AM 71.6 °F - 64.4 °F 78% 29.96 in 6.0 mi ENE 8.1 mph - N/A   Haze
8:53 AM 75.0 °F - 64.0 °F 69% 29.81 in 7.0 mi ENE 9.2 mph - N/A   Clear
9:53 AM 78.1 °F - 63.0 °F 60% 29.80 in 9.0 mi East 6.9 mph - N/A   Clear
10:53 AM 84.0 °F 84.5 °F 62.1 °F 47% 29.78 in 10.0 mi East 9.2 mph - N/A   Clear
11:53 AM 88.0 °F 87.9 °F 61.0 °F 40% 29.77 in 10.0 mi East 13.8 mph 20.7 mph N/A   Clear
12:53 PM 89.1 °F 88.2 °F 59.0 °F 36% 29.75 in 10.0 mi SE 11.5 mph 19.6 mph N/A   Clear
1:53 PM 91.9 °F 90.8 °F 57.9 °F 32% 29.72 in 10.0 mi SE 17.3 mph 23.0 mph N/A   Clear
2:53 PM 93.9 °F 93.2 °F 59.0 °F 31% 29.70 in 10.0 mi SSE 15.0 mph 25.3 mph N/A   Clear
3:53 PM 95.0 °F 94.0 °F 57.9 °F 29% 29.68 in 10.0 mi SSE 10.4 mph - N/A   Clear
4:53 PM 96.1 °F 94.8 °F 57.0 °F 27% 29.67 in 10.0 mi SE 12.7 mph - N/A   Clear
5:53 PM 95.0 °F 92.7 °F 54.0 °F 25% 29.66 in 10.0 mi SE 10.4 mph - N/A   Clear
6:53 PM 93.9 °F 91.7 °F 54.0 °F 26% 29.66 in 10.0 mi SSE 10.4 mph - N/A   Clear
7:53 PM 90.0 °F 87.5 °F 53.1 °F 28% 29.67 in 10.0 mi SE 5.8 mph - N/A   Clear
8:53 PM 84.0 °F 82.6 °F 54.0 °F 35% 29.70 in 10.0 mi ESE 9.2 mph - N/A   Clear
9:53 PM 81.0 °F 81.0 °F 57.0 °F 44% 29.73 in 10.0 mi East 9.2 mph - N/A   Clear
10:53 PM 81.0 °F 81.7 °F 61.0 °F 50% 29.70 in 10.0 mi SE 12.7 mph - N/A   Clear
11:53 PM 77.0 °F - 57.9 °F 52% 29.69 in 10.0 mi SSW 9.2 mph - N/A   Clear